Date String (YYYY-MM-DD hh:mm:ss) UTC,Instrument flags,Ambient pressure (hPa),Sample flow (lpm),Bypass flow (lpm),Sample temperature (°C),Ambient temperature (°C),ASC tube jacket temperature (°C),LED temperature (°C),Box temperature (°C),Sample RH (%),Span deviation,Mass concentration (μg/m³),Mass concentration (μg/m³),Mass concentration (μg/m³)
DateTimeUTC,F1_M11,P_M11,Q1_M11,Q2_M11,T1_M11,T2_M11,T3_M11,T4_M11,T5_M11,U1_M11,ZSPAN_M11,X0_M11,X2_M11,X1_M11
2021-12-31 00:00:00,,0807.0,5.00,0.00,22.1,21.7,00.0,31.1,23.8,07.6,0000.0,0007.63,0000.79,0000.21
2021-12-31 00:01:00,,0807.0,4.98,0.00,22.1,21.5,00.0,31.1,23.8,07.6,0000.0,0007.64,0000.81,0000.21
2021-12-31 00:02:00,,0808.0,4.99,0.00,22.1,21.4,00.0,31.1,23.7,07.7,0000.0,0005.68,0000.76,0000.21
2021-12-31 00:03:00,,0808.1,5.01,0.00,22.0,21.3,00.0,31.1,23.7,07.6,0000.0,0002.82,0000.68,0000.19
2021-12-31 00:04:00,,0807.9,4.99,0.00,22.0,21.2,00.0,31.1,23.6,07.7,0000.0,0002.22,0000.62,0000.18
2021-12-31 00:05:00,,0808.0,5.01,0.00,22.0,21.2,00.0,31.1,23.6,07.7,0000.0,0002.46,0000.56,0000.17
2021-12-31 00:06:00,,0807.9,5.01,0.00,22.0,21.2,00.0,31.1,23.6,07.8,0000.0,0002.68,0000.55,0000.17
2021-12-31 00:07:00,,0807.7,4.98,0.00,22.0,21.2,00.0,31.1,23.7,07.8,0000.0,0002.79,0000.59,0000.18
2021-12-31 00:08:00,,0807.6,5.01,0.00,22.0,21.2,00.0,31.0,23.6,07.8,0000.0,0002.83,0000.60,0000.18
2021-12-31 00:09:00,,0807.4,5.00,0.00,22.0,21.2,00.0,31.0,23.6,07.7,0000.0,0003.71,0000.72,0000.19
2021-12-31 00:10:00,,0807.8,5.01,0.00,21.9,21.1,00.0,31.0,23.6,07.7,0000.0,0004.08,0000.74,0000.19
2021-12-31 00:11:00,,0807.7,4.99,0.00,21.9,21.0,00.0,31.0,23.6,07.8,0000.0,0003.80,0000.74,0000.19
2021-12-31 00:12:00,,0808.1,4.99,0.00,21.9,21.0,00.0,31.0,23.5,07.9,0000.0,0003.93,0000.71,0000.18
2021-12-31 00:13:00,,0808.0,5.01,0.00,21.9,21.0,00.0,31.0,23.5,07.9,0000.0,0004.09,0000.74,0000.18
2021-12-31 00:14:00,,0808.0,5.01,0.00,21.9,21.0,00.0,31.0,23.5,07.9,0000.0,0004.41,0000.80,0000.19
2021-12-31 00:15:00,,0807.9,5.00,0.00,21.9,21.0,00.0,31.0,23.5,08.0,0000.0,0004.46,0000.81,0000.19
2021-12-31 00:16:00,,0808.0,5.00,0.00,21.9,21.0,00.0,31.0,23.5,08.0,0000.0,0005.22,0000.84,0000.20
2021-12-31 00:17:00,,0808.1,4.99,0.00,21.9,21.0,00.0,30.9,23.5,08.0,0000.0,0005.58,0000.87,0000.19
2021-12-31 00:18:00,,0807.7,5.01,0.00,21.8,21.0,00.0,30.9,23.5,08.2,0000.0,0005.47,0000.84,0000.19
2021-12-31 00:19:00,,0807.7,4.98,0.00,21.9,21.5,00.0,31.0,23.6,08.1,0000.0,0006.44,0000.85,0000.19
2021-12-31 00:20:00,,0808.4,4.99,0.00,22.0,22.4,00.0,31.0,23.9,08.2,0000.0,0006.37,0000.80,0000.19
2021-12-31 00:21:00,,0808.4,5.00,0.00,22.2,23.0,00.0,31.1,24.2,08.2,0000.0,0006.07,0000.79,0000.18
2021-12-31 00:22:00,,0808.5,5.00,0.00,22.2,22.8,00.0,31.1,24.2,08.2,0000.0,0005.83,0000.77,0000.18
2021-12-31 00:23:00,,0808.2,5.00,0.00,22.3,22.6,00.0,31.1,24.1,08.2,0000.0,0005.57,0000.74,0000.18
2021-12-31 00:24:00,,0808.3,5.01,0.00,22.3,22.4,00.0,31.1,24.1,08.0,0000.0,0005.49,0000.69,0000.17
2021-12-31 00:25:00,,0808.0,4.99,0.00,22.2,22.2,00.0,31.1,24.0,08.0,0000.0,0006.88,0000.65,0000.17
2021-12-31 00:26:00,,0808.3,5.00,0.00,22.2,22.0,00.0,31.1,23.9,07.9,0000.0,0008.10,0000.66,0000.17
2021-12-31 00:27:00,,0808.5,4.99,0.00,22.2,21.9,00.0,31.1,23.9,07.9,0000.0,0007.49,0000.64,0000.18
2021-12-31 00:28:00,,0808.2,5.00,0.00,22.2,21.7,00.0,31.1,23.8,07.8,0000.0,0007.11,0000.62,0000.17
2021-12-31 00:29:00,,0808.2,5.00,0.00,22.1,21.6,00.0,31.1,23.8,07.8,0000.0,0007.76,0000.62,0000.17
2021-12-31 00:30:00,,0807.7,5.01,0.00,22.1,21.5,00.0,31.1,23.8,07.7,0000.0,0008.21,0000.63,0000.18
2021-12-31 00:31:00,,0808.1,5.00,0.00,22.1,21.4,00.0,31.1,23.7,07.7,0000.0,0008.43,0000.72,0000.18
2021-12-31 00:32:00,,0807.7,5.00,0.00,22.1,21.3,00.0,31.1,23.7,07.6,0000.0,0008.43,0000.73,0000.17
2021-12-31 00:33:00,,0807.5,5.00,0.00,22.0,21.3,00.0,31.1,23.6,07.3,0000.0,0008.38,0000.73,0000.17
2021-12-31 00:34:00,,0807.8,5.00,0.00,21.9,21.2,00.0,31.1,23.5,07.4,0000.0,0008.43,0000.77,0000.18
2021-12-31 00:35:00,,0807.9,5.00,0.00,21.9,21.1,00.0,31.1,23.5,07.5,0000.0,0008.38,0000.78,0000.19
2021-12-31 00:36:00,,0807.7,5.00,0.00,21.9,21.1,00.0,31.1,23.5,07.6,0000.0,0006.82,0000.77,0000.19
2021-12-31 00:37:00,,0807.4,5.00,0.00,21.9,21.2,00.0,31.0,23.6,07.6,0000.0,0006.18,0000.77,0000.18
2021-12-31 00:38:00,,0807.7,5.01,0.00,21.9,21.1,00.0,31.0,23.6,07.7,0000.0,0006.79,0000.90,0000.18
2021-12-31 00:39:00,,0808.1,5.00,0.00,21.9,21.1,00.0,31.0,23.5,07.8,0000.0,0006.97,0000.96,0000.20
2021-12-31 00:40:00,,0808.2,5.00,0.00,21.9,21.1,00.0,31.0,23.5,07.9,0000.0,0005.95,0000.96,0000.21
2021-12-31 00:41:00,,0808.4,5.00,0.00,21.9,21.1,00.0,31.0,23.5,07.9,0000.0,0004.68,0000.95,0000.21
2021-12-31 00:42:00,,0808.1,5.00,0.00,21.9,21.1,00.0,31.0,23.5,07.9,0000.0,0003.73,0000.86,0000.21
2021-12-31 00:43:00,,0807.9,5.00,0.00,21.8,21.1,00.0,31.0,23.5,07.9,0000.0,0003.68,0000.83,0000.21
2021-12-31 00:44:00,,0808.3,5.00,0.00,21.9,21.6,00.0,31.0,23.6,07.8,0000.0,0005.03,0000.85,0000.21
2021-12-31 00:45:00,,0808.2,5.01,0.00,22.0,22.4,00.0,31.0,23.9,07.8,0000.0,0006.58,0000.85,0000.21
2021-12-31 00:46:00,,0808.1,5.00,0.00,22.2,23.0,00.0,31.1,24.2,07.9,0000.0,0006.58,0000.84,0000.20
2021-12-31 00:47:00,,0807.9,5.00,0.00,22.2,22.7,00.0,31.1,24.1,07.8,0000.0,0006.41,0000.81,0000.20
2021-12-31 00:48:00,,0807.9,4.99,0.00,22.2,22.4,00.0,31.1,23.9,08.0,0000.0,0006.04,0000.82,0000.20
2021-12-31 00:49:00,,0807.9,4.99,0.00,22.1,22.1,00.0,31.1,23.8,08.1,0000.0,0005.41,0000.71,0000.20
2021-12-31 00:50:00,,0808.0,5.01,0.00,22.1,21.9,00.0,31.1,23.8,08.1,0000.0,0005.41,0000.69,0000.18
2021-12-31 00:51:00,,0808.1,5.00,0.00,22.1,21.8,00.0,31.1,23.8,08.3,0000.0,0005.98,0000.70,0000.18
2021-12-31 00:52:00,,0808.1,4.99,0.00,22.0,21.6,00.0,31.1,23.7,08.4,0000.0,0007.32,0000.68,0000.17
2021-12-31 00:53:00,,0808.0,5.01,0.00,22.0,21.4,00.0,31.1,23.6,08.4,0000.0,0007.07,0000.63,0000.16
2021-12-31 00:54:00,,0807.7,5.00,0.00,21.9,21.3,00.0,31.1,23.5,08.4,0000.0,0006.95,0000.61,0000.16
2021-12-31 00:55:00,,0807.9,5.00,0.00,21.9,21.3,00.0,31.1,23.5,08.6,0000.0,0005.76,0000.55,0000.15
2021-12-31 00:56:00,,0807.8,5.00,0.00,21.9,21.2,00.0,31.0,23.5,08.3,0000.0,0003.82,0000.51,0000.15
2021-12-31 00:57:00,,0807.6,4.99,0.00,21.8,21.1,00.0,31.0,23.4,08.6,0000.0,0003.74,0000.48,0000.14
2021-12-31 00:58:00,,0807.9,5.00,0.00,21.8,21.0,00.0,31.0,23.3,08.5,0000.0,0003.74,0000.48,0000.14
2021-12-31 00:59:00,,0807.9,5.01,0.00,21.7,21.0,00.0,31.0,23.3,08.5,0000.0,0003.63,0000.43,0000.14
